1487376000.49,7653,12.38,73212.0,-12.63,-35.41,-36.43,0,*50
1487376001.77,7654,12.38,73214.3,-12.65,-35.65,-36.49,0,*5D
1487376003.0,7655,12.44,73218.5,-12.63,-35.53,-36.43,0,*55
1487376004.24,7656,12.38,73216.3,-12.63,-35.35,-36.31,0,*53
1487376005.5,7657,12.38,73208.8,-12.65,-35.47,-36.49,0,*5E
1487376006.76,7658,12.38,73210.8,-12.65,-35.65,-36.55,0,*5C
1487376008.04,7659,12.38,73210.8,-12.65,-35.41,-36.37,0,*5F
1487376009.3,7660,12.38,73212.0,-12.65,-35.41,-36.31,0,*53
1487376010.56,7661,12.38,73212.3,-12.65,-35.47,-36.49,0,*5B
1487376011.82,7662,12.38,73212.0,-12.65,-35.47,-36.49,0,*58
1487376013.08,7663,12.38,73214.0,-12.65,-35.59,-36.49,0,*56
1487376014.33,7664,12.38,73212.0,-12.67,-35.41,-36.37,0,*53
1487376015.56,7665,12.38,73212.8,-12.67,-35.59,-36.49,0,*52
1487376016.8,7666,12.38,73214.3,-12.67,-35.47,-36.49,0,*5E
1487376018.08,7667,12.38,73214.3,-12.65,-35.41,-36.37,0,*52
1487376019.34,7668,12.38,73214.3,-12.65,-35.47,-36.49,0,*52
1487376020.59,7669,12.38,73214.5,-12.67,-35.53,-36.61,0,*5E
1487376021.85,7670,12.38,73216.5,-12.65,-35.47,-36.37,0,*52
1487376023.09,7671,12.38,73218.8,-12.65,-35.59,-36.55,0,*58
1487376024.33,7672,12.38,73216.5,-12.65,-35.59,-36.55,0,*5B
1487376025.59,7673,12.44,73216.3,-12.65,-35.23,-36.31,0,*55
1487376026.82,7674,12.38,73214.3,-12.67,-35.59,-36.49,0,*52
1487376028.06,7675,12.38,73212.8,-12.65,-35.59,-36.55,0,*5C
1487376029.32,7676,12.38,73212.8,-12.67,-35.65,-36.61,0,*55
1487376030.55,7677,12.38,73214.8,-12.67,-35.41,-36.43,0,*52
1487376031.79,7678,12.38,73216.3,-12.67,-35.47,-36.37,0,*58
1487376033.02,7679,12.38,73216.3,-12.67,-35.35,-36.31,0,*5A
1487376034.24,7680,12.38,73218.8,-12.63,-35.29,-36.43,0,*50
1487376035.52,7681,12.38,73212.8,-12.65,-35.35,-36.49,0,*50
1487376036.8,7682,12.38,73212.3,-12.65,-35.41,-36.49,0,*50
1487376038.08,7683,12.38,73214.0,-12.65,-35.41,-36.49,0,*51
1487376039.34,7684,12.38,73208.8,-12.65,-35.23,-36.31,0,*5D
1487376040.58,7685,12.38,73210.5,-12.67,-35.47,-36.49,0,*53
1487376041.82,7686,12.38,73216.3,-12.65,-35.59,-36.55,0,*50
1487376043.08,7687,12.44,73218.0,-12.65,-35.65,-36.55,0,*5E
1487376044.3,7688,12.38,73214.5,-12.67,-35.47,-36.55,0,*53
1487376045.56,7689,12.38,73212.5,-12.67,-35.35,-36.37,0,*53
1487376046.78,7690,12.38,73214.3,-12.67,-35.59,-36.55,0,*55
1487376048.03,7691,12.38,73214.8,-12.67,-35.41,-36.49,0,*50
1487376049.29,7692,12.38,73214.8,-12.67,-35.23,-36.37,0,*5E
1487376050.55,7693,12.38,73218.8,-12.67,-35.41,-36.49,0,*52
1487376051.79,7694,12.44,73220.5,-12.67,-35.23,-36.31,0,*5E
1487376053.0,7695,12.38,73216.5,-12.67,-35.59,-36.55,0,*50
1487376054.26,7696,12.38,73216.0,-12.67,-35.35,-36.49,0,*54
1487376055.48,7697,12.38,73216.8,-12.67,-35.77,-36.73,0,*5A
1487376056.71,7698,12.38,73214.8,-12.67,-35.65,-36.73,0,*56
1487376057.93,7699,12.38,73218.0,-12.67,-35.47,-36.55,0,*53
1487376059.17,7700,12.38,73216.5,-12.67,-35.53,-36.67,0,*56
1487376060.4,7701,12.38,73222.3,-12.67,-35.59,-36.61,0,*5B
1487376061.64,7702,12.38,73220.3,-12.67,-35.41,-36.55,0,*56
1487376062.86,7703,12.38,73218.5,-12.67,-35.59,-36.55,0,*5E
1487376064.11,7704,12.38,73216.8,-12.67,-35.35,-36.37,0,*57
1487376065.35,7705,12.38,73214.0,-12.67,-35.35,-36.43,0,*55
1487376066.63,7706,12.38,73216.0,-12.65,-35.35,-36.37,0,*57
1487376067.87,7707,12.38,73218.8,-12.67,-35.41,-36.55,0,*53
1487376069.11,7708,12.38,73216.3,-12.67,-35.41,-36.55,0,*5C
1487376070.34,7709,12.38,73218.0,-12.67,-35.47,-36.37,0,*5F
1487376071.62,7710,12.38,73218.5,-12.65,-35.35,-36.49,0,*59
1487376072.88,7711,12.38,73220.5,-12.65,-35.35,-36.31,0,*57
1487376074.16,7712,12.38,73218.8,-12.65,-35.41,-36.49,0,*58
1487376075.44,7713,12.38,73218.5,-12.65,-35.65,-36.61,0,*55
1487376076.68,7714,12.38,73212.5,-12.67,-35.65,-36.73,0,*53
1487376077.92,7715,12.38,73216.8,-12.67,-35.41,-36.55,0,*50
1487376079.2,7716,12.38,73214.5,-12.65,-35.35,-36.37,0,*56
1487376080.43,7717,12.44,73216.0,-12.65,-35.59,-36.55,0,*59
1487376081.69,7718,12.38,73218.5,-12.65,-35.59,-36.61,0,*51
1487376082.93,7719,12.38,73218.8,-12.65,-35.59,-36.55,0,*57
1487376084.21,7720,12.38,73216.8,-12.65,-35.35,-36.49,0,*5A
1487376085.49,7721,12.38,73218.0,-12.65,-35.65,-36.61,0,*54
1487376086.73,7722,12.38,73216.5,-12.67,-35.41,-36.43,0,*53
1487376087.99,7723,12.38,73220.5,-12.65,-35.59,-36.61,0,*59
1487376089.24,7724,12.38,73222.5,-12.63,-35.53,-36.49,0,*58
1487376090.52,7725,12.38,73212.8,-12.65,-35.35,-36.37,0,*56
1487376091.78,7726,12.38,73214.5,-12.65,-35.17,-36.13,0,*53
1487376093.04,7727,12.38,73212.8,-12.65,-35.77,-36.61,0,*51
1487376094.32,7728,12.38,73216.8,-12.65,-35.65,-36.61,0,*5D
1487376095.61,7729,12.38,73216.5,-12.65,-35.83,-36.61,0,*54
1487376096.87,7730,12.38,73216.0,-12.65,-35.23,-36.19,0,*59
1487376098.13,7731,12.38,73218.5,-12.65,-35.65,-36.55,0,*52
1487376099.4,7732,12.38,73216.5,-12.65,-35.41,-36.55,0,*57
1487376100.65,7733,12.38,73214.8,-12.65,-35.59,-36.61,0,*58
1487376101.92,7734,12.38,73214.3,-12.65,-35.77,-36.61,0,*53
1487376103.17,7735,12.38,73216.3,-12.65,-35.59,-36.61,0,*5E
1487376104.46,7736,12.38,73216.3,-12.65,-35.83,-36.79,0,*53
1487376105.7,7737,12.38,73216.8,-12.65,-35.77,-36.73,0,*53
1487376106.94,7738,12.38,73218.3,-12.65,-35.59,-36.55,0,*54
1487376108.17,7739,12.38,73218.3,-12.63,-35.53,-36.43,0,*5E
1487376109.43,7740,12.38,73218.5,-12.65,-35.77,-36.79,0,*59
1487376110.7,7741,12.38,73216.3,-12.65,-35.77,-36.61,0,*51
1487376111.98,7742,12.38,73218.8,-12.65,-35.83,-36.79,0,*50
1487376113.22,7743,12.38,73218.3,-12.65,-36.01,-36.85,0,*5B
1487376114.46,7744,12.38,73222.3,-12.65,-35.59,-36.55,0,*5F
1487376115.72,7745,12.38,73216.5,-12.65,-35.83,-36.73,0,*5D
1487376116.96,7746,12.38,73214.5,-12.65,-35.77,-36.73,0,*55
1487376118.23,7747,12.38,73220.8,-12.65,-35.83,-36.73,0,*5F
1487376119.49,7748,12.38,73218.8,-12.65,-35.83,-36.73,0,*50
1487376120.73,7749,12.38,73222.8,-12.65,-35.77,-36.73,0,*5A
1487376121.95,7750,12.38,73218.8,-12.67,-35.89,-36.73,0,*51
1487376123.19,7751,12.38,73218.8,-12.65,-35.77,-36.73,0,*53
1487376124.4,7752,12.38,73216.8,-12.63,-35.89,-36.85,0,*5E
1487376125.64,7753,12.38,73214.5,-12.65,-35.59,-36.55,0,*59
1487376126.88,7754,12.44,73220.3,-12.65,-35.77,-36.73,0,*56
1487376128.14,7755,12.38,73216.8,-12.65,-36.01,-37.09,0,*59
1487376129.43,7756,12.38,73216.8,-12.65,-35.95,-36.91,0,*54
1487376130.71,7757,12.38,73220.0,-12.65,-35.65,-36.61,0,*55
1487376131.95,7758,12.38,73216.3,-12.65,-36.01,-36.97,0,*52
1487376133.23,7759,12.38,73218.0,-12.65,-35.95,-36.79,0,*5D
1487376134.52,7760,12.38,73214.5,-12.65,-35.83,-36.79,0,*50
1487376135.78,7761,12.38,73214.8,-12.65,-36.01,-37.09,0,*5E
1487376137.06,7762,12.38,73220.0,-12.65,-35.95,-36.79,0,*55
1487376138.33,7763,12.38,73218.3,-12.65,-35.83,-36.73,0,*59
1487376139.58,7764,12.38,73218.8,-12.67,-35.65,-36.61,0,*57
1487376140.83,7765,12.38,73220.0,-12.65,-35.47,-36.55,0,*53
1487376142.11,7766,12.38,73220.8,-12.65,-35.41,-36.49,0,*5B
1487376143.37,7767,12.38,73216.8,-12.65,-35.47,-36.49,0,*5C
1487376144.58,7768,12.38,73218.5,-12.63,-35.59,-36.67,0,*56
1487376145.82,7769,12.38,73216.8,-12.65,-35.59,-36.55,0,*50
1487376147.04,7770,12.38,73218.0,-12.63,-35.59,-36.67,0,*5F
1487376148.28,7771,12.38,73216.0,-12.63,-35.53,-36.55,0,*55
1487376149.5,7772,12.38,73218.3,-12.63,-35.71,-36.73,0,*52
1487376150.79,7773,12.38,73218.3,-12.65,-35.95,-36.91,0,*53
1487376152.05,7774,12.38,73216.0,-12.65,-36.01,-36.91,0,*5A
1487376153.33,7775,12.38,73218.0,-12.65,-35.95,-36.91,0,*55
1487376154.62,7776,12.38,73216.8,-12.65,-35.83,-36.79,0,*57
1487376155.91,7777,12.38,73218.8,-12.65,-35.95,-36.91,0,*57
1487376157.15,7778,12.38,73218.5,-12.63,-35.95,-37.03,0,*54
1487376158.38,7779,12.38,73218.8,-12.65,-36.01,-36.97,0,*51
1487376159.65,7780,12.38,73216.0,-12.65,-36.13,-37.15,0,*5F
1487376160.91,7781,12.38,73222.5,-12.67,-35.95,-37.09,0,*5C
1487376162.12,7782,12.38,73218.8,-12.67,-36.01,-36.97,0,*57
1487376163.41,7783,12.38,73216.3,-12.65,-35.83,-36.91,0,*5B
1487376164.65,7784,12.38,73216.0,-12.65,-36.01,-36.97,0,*53
1487376165.91,7785,12.38,73212.3,-12.65,-35.95,-37.15,0,*57
1487376167.2,7786,12.38,73214.5,-12.65,-35.95,-37.09,0,*59
1487376168.44,7787,12.38,73216.3,-12.65,-36.01,-37.15,0,*5B
1487376169.68,7788,12.38,73214.5,-12.65,-36.01,-36.97,0,*5F
1487376170.88,7789,12.38,73218.5,-12.67,-36.19,-37.27,0,*5F
1487376172.15,7790,12.38,73216.5,-12.67,-35.95,-36.91,0,*5C
1487376173.39,7791,12.38,73212.8,-12.67,-35.83,-36.97,0,*5C
1487376174.6,7792,12.38,73214.0,-12.67,-36.19,-37.33,0,*50
1487376175.83,7793,12.38,73214.5,-12.67,-36.13,-37.27,0,*5E
1487376177.08,7794,12.38,73208.5,-12.65,-36.13,-37.33,0,*5E
1487376178.34,7795,12.38,73214.5,-12.65,-36.13,-37.33,0,*5F
1487376179.57,7796,12.38,73212.5,-12.67,-36.13,-37.27,0,*5B
1487376180.8,7797,12.38,73214.3,-12.67,-36.13,-37.15,0,*5B
1487376182.04,7798,12.38,73212.8,-12.67,-36.13,-37.27,0,*55
1487376183.3,7799,12.38,73212.3,-12.67,-35.95,-37.09,0,*55
1487376184.56,7800,12.38,73212.8,-12.67,-35.95,-36.79,0,*5C
1487376185.78,7801,12.38,73214.0,-12.67,-35.47,-36.73,0,*58
1487376187.04,7802,12.38,73214.8,-12.65,-35.95,-36.97,0,*5C
1487376188.33,7803,12.38,73208.3,-12.65,-35.83,-37.09,0,*5C
1487376189.56,7804,12.38,73210.8,-12.65,-36.01,-37.27,0,*5E
1487376190.8,7805,12.38,73214.5,-12.65,-36.01,-37.27,0,*5F
1487376192.06,7806,12.38,73212.0,-12.65,-35.77,-36.91,0,*52
1487376193.32,7807,12.38,73212.5,-12.65,-36.01,-37.09,0,*51
1487376194.56,7808,12.38,73212.5,-12.63,-35.77,-36.91,0,*5A
1487376195.8,7809,12.38,73210.3,-12.65,-36.01,-37.27,0,*53
1487376197.03,7810,12.38,73214.8,-12.65,-36.19,-37.33,0,*57
1487376198.31,7811,12.38,73212.3,-12.65,-36.13,-37.09,0,*55
1487376199.53,7812,12.38,73214.8,-12.63,-36.07,-37.27,0,*59
1487376200.78,7813,12.38,73212.8,-12.65,-36.13,-37.45,0,*5F
1487376202.01,7814,12.38,73214.0,-12.65,-36.19,-37.45,0,*52
1487376203.24,7815,12.38,73212.8,-12.65,-36.19,-37.45,0,*53
1487376204.47,7816,12.38,73212.8,-12.65,-36.19,-37.45,0,*50
1487376205.72,7817,12.38,73212.0,-12.65,-36.13,-37.33,0,*5A
1487376206.97,7818,12.38,73212.8,-12.65,-36.13,-37.45,0,*54
1487376208.23,7819,12.38,73214.0,-12.65,-36.13,-37.27,0,*51
1487376209.46,7820,12.38,73212.5,-12.65,-36.01,-37.27,0,*58
1487376210.68,7821,12.38,73212.0,-12.63,-36.07,-37.27,0,*59
1487376211.93,7822,12.38,73214.5,-12.65,-36.13,-37.45,0,*5D
1487376213.18,7823,12.38,73214.3,-12.65,-36.13,-37.45,0,*5C
1487376214.42,7824,12.38,73212.8,-12.65,-36.01,-37.33,0,*59
1487376215.68,7825,12.38,73218.3,-12.65,-35.95,-37.27,0,*53
1487376216.89,7826,12.38,73218.8,-12.67,-36.07,-37.33,0,*5F
1487376218.15,7827,12.38,73212.8,-12.67,-36.13,-37.51,0,*5F
1487376219.39,7828,12.38,73214.0,-12.67,-35.95,-37.15,0,*5D
1487376220.66,7829,12.38,73216.3,-12.65,-36.19,-37.51,0,*59
1487376221.92,7830,12.38,73216.0,-12.65,-36.19,-37.51,0,*51
1487376223.15,7831,12.38,73214.3,-12.65,-36.01,-37.33,0,*5D
1487376224.42,7832,12.38,73214.5,-12.65,-36.01,-37.51,0,*5A
1487376225.71,7833,12.38,73214.0,-12.65,-36.37,-37.63,0,*5F
1487376226.97,7834,12.38,73214.3,-12.65,-36.19,-37.51,0,*55
1487376228.21,7835,12.38,73212.3,-12.65,-36.01,-37.33,0,*59
1487376229.47,7836,12.38,73214.8,-12.65,-36.19,-37.63,0,*56
1487376230.73,7837,12.38,73216.5,-12.65,-35.95,-37.27,0,*50
1487376232.0,7838,12.38,73216.3,-12.65,-36.31,-37.51,0,*53
1487376233.24,7839,12.38,73218.3,-12.67,-36.19,-37.51,0,*5A
1487376234.48,7840,12.38,73214.0,-12.67,-36.31,-37.63,0,*5F
1487376235.77,7841,12.38,73218.5,-12.65,-36.13,-37.63,0,*5C
1487376237.01,7842,12.38,73218.0,-12.67,-36.31,-37.69,0,*57
1487376238.27,7843,12.38,73214.0,-12.67,-36.37,-37.69,0,*50
1487376239.51,7844,12.38,73214.5,-12.67,-36.37,-37.75,0,*5A
1487376240.77,7845,12.38,73218.0,-12.67,-36.49,-37.69,0,*5F
1487376242.03,7846,12.44,73222.0,-12.67,-36.37,-37.93,0,*50
1487376243.24,7847,12.38,73216.3,-12.67,-36.55,-37.75,0,*5D
1487376244.48,7848,12.38,73212.8,-12.67,-36.55,-37.93,0,*5A
1487376245.72,7849,12.38,73216.3,-12.67,-36.49,-38.05,0,*56
1487376246.96,7850,12.38,73216.8,-12.67,-36.37,-37.75,0,*5F
1487376248.19,7851,12.38,73212.0,-12.67,-36.49,-37.75,0,*57
1487376249.46,7852,12.38,73216.0,-12.67,-36.13,-37.51,0,*5D
1487376250.7,7853,12.38,73216.0,-12.67,-36.49,-37.75,0,*55
1487376251.93,7854,12.38,73212.8,-12.67,-36.49,-37.75,0,*52
1487376253.17,7855,12.38,73214.5,-12.67,-36.19,-37.69,0,*5B
1487376254.4,7856,12.38,73212.8,-12.67,-36.49,-38.05,0,*58
1487376255.66,7857,12.38,73218.5,-12.65,-36.49,-38.05,0,*5B
1487376256.89,7858,12.38,73216.5,-12.67,-36.61,-38.05,0,*5C
1487376258.16,7859,12.38,73214.8,-12.67,-36.61,-37.99,0,*57
1487376259.42,7860,12.38,73214.0,-12.67,-36.37,-37.93,0,*54
1487376260.68,7861,12.38,73214.3,-12.67,-36.37,-37.93,0,*55
1487376261.93,7862,12.38,73208.3,-12.67,-36.43,-37.99,0,*5F
1487376263.17,7863,12.38,73208.5,-12.67,-36.19,-37.63,0,*54
1487376264.41,7864,12.38,73210.5,-12.67,-36.31,-37.93,0,*56
1487376265.65,7865,12.38,73212.3,-12.67,-36.43,-37.99,0,*58
1487376266.91,7866,12.38,73210.5,-12.67,-36.37,-37.93,0,*52
1487376268.18,7867,12.38,73212.5,-12.67,-36.37,-37.93,0,*53
1487376269.43,7868,12.38,73212.8,-12.65,-36.37,-38.05,0,*5E
1487376270.68,7869,12.38,73214.3,-12.67,-36.43,-37.99,0,*54
1487376271.91,7870,12.38,73212.0,-12.67,-36.37,-37.75,0,*5D
1487376273.18,7871,12.38,73212.0,-12.67,-36.37,-37.93,0,*54
1487376274.42,7872,12.38,73212.8,-12.67,-36.37,-37.75,0,*5F
1487376275.68,7873,12.38,73210.5,-12.67,-36.61,-38.29,0,*5B
1487376276.94,7874,12.38,73212.3,-12.67,-36.61,-38.11,0,*57
1487376278.2,7875,12.38,73210.8,-12.67,-36.61,-38.11,0,*56
1487376279.44,7876,12.38,73216.8,-12.67,-36.55,-38.11,0,*52
1487376280.68,7877,12.38,73214.0,-12.67,-36.55,-38.11,0,*53
1487376281.92,7878,12.38,73216.3,-12.67,-36.73,-38.23,0,*59
1487376283.17,7879,12.38,73216.8,-12.67,-36.67,-38.29,0,*57
1487376284.38,7880,12.38,73214.0,-12.67,-36.31,-38.05,0,*5C
1487376285.62,7881,12.38,73218.0,-12.67,-36.55,-38.11,0,*5A
1487376286.85,7882,12.38,73216.0,-12.67,-36.43,-38.11,0,*5E
1487376288.12,7883,12.38,73216.8,-12.67,-36.37,-37.99,0,*53
1487376289.36,7884,12.38,73218.0,-12.67,-36.43,-38.11,0,*58
1487376290.59,7885,12.38,73214.0,-12.67,-36.43,-38.11,0,*59
1487376291.81,7886,12.38,73218.5,-12.67,-36.43,-38.17,0,*5C
1487376293.08,7887,12.38,73214.3,-12.67,-36.61,-38.29,0,*50
1487376294.34,7888,12.38,73214.8,-12.67,-36.61,-38.11,0,*54
1487376295.55,7889,12.38,73212.8,-12.67,-36.67,-38.35,0,*55
1487376296.77,7890,12.38,73212.5,-12.67,-36.67,-38.35,0,*5D
1487376298.04,7891,12.38,73214.5,-12.67,-36.61,-38.29,0,*57
1487376299.28,7892,12.38,73212.3,-12.67,-36.85,-38.49,0,*58
1487376300.53,7893,12.38,73214.3,-12.67,-36.85,-38.49,0,*59
1487376301.76,7894,12.38,73214.8,-12.69,-36.85,-38.49,0,*50
1487376303.01,7895,12.38,73212.3,-12.67,-36.73,-38.49,0,*56
1487376304.23,7896,12.38,73214.8,-12.67,-36.97,-38.55,0,*52
1487376305.46,7897,12.38,73216.8,-12.69,-36.67,-38.49,0,*5F
1487376306.7,7898,12.38,73214.8,-12.69,-36.97,-38.49,0,*5F
1487376307.95,7899,12.38,73216.5,-12.67,-36.67,-38.29,0,*59
1487376309.18,7900,12.38,73216.0,-12.67,-36.61,-38.17,0,*53
1487376310.39,7901,12.38,73214.3,-12.67,-36.85,-38.73,0,*5A
1487376311.64,7902,12.38,73214.0,-12.67,-36.85,-38.49,0,*50
1487376312.85,7903,12.38,73220.5,-12.67,-36.67,-38.35,0,*56
1487376314.07,7904,12.38,73218.3,-12.67,-36.85,-38.55,0,*5B
1487376315.31,7905,12.38,73214.0,-12.67,-37.03,-38.67,0,*54
1487376316.55,7906,12.38,73216.3,-12.67,-36.85,-38.67,0,*58
1487376317.79,7907,12.38,73212.5,-12.69,-36.67,-38.49,0,*57
1487376319.05,7908,12.38,73218.3,-12.69,-36.61,-38.29,0,*58
1487376320.26,7909,12.38,73214.8,-12.69,-36.85,-38.73,0,*5C
1487376321.5,7910,12.38,73214.0,-12.69,-36.97,-38.67,0,*52
1487376322.71,7911,12.38,73216.8,-12.67,-37.15,-38.85,0,*5A
1487376323.91,7912,12.38,73220.8,-12.69,-37.03,-38.73,0,*59
1487376325.14,7913,12.38,73222.0,-12.73,-37.09,-38.97,0,*53
1487376326.38,7914,12.38,73218.5,-12.69,-36.85,-38.49,0,*59
1487376327.64,7915,12.38,73216.3,-12.69,-36.79,-38.49,0,*5B
1487376328.84,7916,12.38,73212.8,-12.69,-37.03,-38.73,0,*5D
1487376330.07,7917,12.38,73218.5,-12.73,-37.09,-38.73,0,*5D
1487376331.27,7918,12.38,73220.3,-12.69,-37.03,-38.73,0,*53
1487376332.51,7919,12.38,73216.0,-12.69,-36.97,-38.67,0,*5B
1487376333.73,7920,12.38,73220.3,-12.69,-36.85,-38.55,0,*53
1487376334.96,7921,12.38,73216.8,-12.69,-36.55,-38.11,0,*5F
1487376336.22,7922,12.38,73222.8,-12.69,-36.79,-38.49,0,*5F
1487376337.42,7923,12.38,73220.8,-12.69,-36.97,-38.73,0,*57
1487376338.65,7924,12.38,73220.3,-12.69,-37.09,-38.73,0,*56
1487376339.87,7925,12.38,73222.3,-12.69,-36.67,-38.35,0,*5C
1487376341.1,7926,12.38,73222.3,-12.73,-36.85,-38.49,0,*53
1487376342.32,7927,12.38,73226.5,-12.67,-36.67,-38.35,0,*50
1487376343.58,7928,12.38,73226.5,-12.69,-36.61,-38.11,0,*51
1487376344.79,7929,12.38,73226.0,-12.69,-36.97,-38.55,0,*59
1487376346.0,7930,12.38,73224.3,-12.69,-37.15,-38.73,0,*5E
1487376347.23,7931,12.38,73224.8,-12.69,-36.85,-38.49,0,*5E
1487376348.47,7932,12.38,73222.5,-12.69,-36.61,-38.17,0,*5C
1487376349.68,7933,12.38,73224.8,-12.69,-36.85,-38.55,0,*51
1487376350.9,7934,12.38,73226.3,-12.69,-36.67,-38.35,0,*5C
1487376352.11,7935,12.38,73222.3,-12.73,-36.67,-38.35,0,*56
1487376353.35,7936,12.38,73226.0,-12.67,-36.67,-38.29,0,*5D
1487376354.62,7937,12.38,73222.5,-12.67,-36.61,-38.29,0,*5A
1487376355.86,7938,12.38,73218.8,-12.67,-36.79,-38.35,0,*51
1487376357.12,7939,12.38,73224.3,-12.67,-36.61,-38.23,0,*5E
1487376358.34,7940,12.38,73226.0,-12.67,-37.03,-38.55,0,*54
1487376359.61,7941,12.38,73226.5,-12.67,-36.79,-38.29,0,*52
1487376360.82,7942,12.38,73224.3,-12.67,-36.67,-38.17,0,*53
1487376362.07,7943,12.38,73224.3,-12.67,-36.73,-38.23,0,*50
1487376363.33,7944,12.38,73222.5,-12.67,-36.61,-38.11,0,*55
1487376364.57,7945,12.38,73222.8,-12.67,-36.73,-38.23,0,*56
1487376365.84,7946,12.38,73224.3,-12.67,-36.79,-38.23,0,*5F
1487376367.08,7947,12.38,73222.8,-12.67,-36.91,-38.43,0,*5E
1487376368.34,7948,12.38,73222.3,-12.67,-36.91,-38.49,0,*5B
1487376369.56,7949,12.38,73220.8,-12.67,-36.97,-38.43,0,*56
1487376370.83,7950,12.38,73222.5,-12.67,-36.91,-38.49,0,*52
1487376372.09,7951,12.38,73220.5,-12.67,-36.79,-38.29,0,*53
1487376373.36,7952,12.38,73224.5,-12.67,-36.91,-38.23,0,*5C
1487376374.61,7953,12.38,73222.5,-12.67,-36.73,-38.23,0,*51
1487376375.87,7954,12.38,73222.0,-12.67,-37.09,-38.67,0,*5A
1487376377.14,7955,12.38,73222.5,-12.65,-37.27,-38.79,0,*5A
1487376378.38,7956,12.38,73228.3,-12.67,-37.09,-38.61,0,*5E
1487376379.61,7957,12.38,73224.3,-12.67,-36.79,-38.43,0,*59
1487376380.88,7958,12.38,73224.8,-12.67,-36.79,-38.29,0,*5A
1487376382.1,7959,12.38,73224.0,-12.67,-36.97,-38.43,0,*57
1487376383.34,7960,12.38,73222.5,-12.67,-37.09,-38.43,0,*5B
1487376384.56,7961,12.38,73224.0,-12.67,-36.97,-38.43,0,*5C
1487376385.78,7962,12.38,73226.0,-12.67,-36.97,-38.61,0,*5F
1487376386.99,7963,12.38,73224.5,-12.67,-37.27,-38.85,0,*5E
1487376388.2,7964,12.38,73220.3,-12.67,-37.33,-38.85,0,*5C
1487376389.47,7965,12.38,73222.0,-12.67,-37.09,-38.49,0,*54
1487376390.71,7966,12.38,73222.3,-12.67,-37.09,-38.43,0,*5D
1487376391.95,7967,12.38,73222.8,-12.65,-36.97,-38.43,0,*58
1487376393.19,7968,12.38,73222.8,-12.65,-37.15,-38.61,0,*5C
1487376394.45,7969,12.38,73226.3,-12.65,-37.15,-38.67,0,*5B
1487376395.69,7970,12.38,73220.3,-12.67,-37.27,-38.79,0,*5F
1487376396.93,7971,12.38,73224.0,-12.67,-37.09,-38.61,0,*5B
1487376398.17,7972,12.38,73220.8,-12.67,-37.27,-38.67,0,*52
1487376399.41,7973,12.38,73224.3,-12.67,-37.09,-38.61,0,*59
1487376400.63,7974,12.38,73226.3,-12.67,-36.97,-38.43,0,*58
1487376401.89,7975,12.38,73220.8,-12.67,-36.79,-38.23,0,*5F
1487376403.14,7976,12.38,73220.3,-12.63,-37.09,-38.43,0,*58
1487376404.38,7977,12.38,73222.0,-12.65,-37.27,-38.85,0,*59
1487376405.61,7978,12.38,73220.3,-12.65,-37.15,-38.61,0,*5D
1487376406.91,7979,12.38,73222.8,-12.65,-36.91,-38.23,0,*57
1487376408.14,7980,12.38,73222.8,-12.65,-37.15,-38.61,0,*5A
1487376409.41,7981,12.38,73220.8,-12.65,-37.09,-38.61,0,*56
1487376410.7,7982,12.38,73216.5,-12.65,-36.79,-38.29,0,*5F
1487376411.96,7983,12.38,73218.8,-12.65,-37.27,-38.67,0,*5E
1487376413.19,7984,12.38,73220.3,-12.65,-37.15,-38.61,0,*5E
1487376414.46,7985,12.38,73226.3,-12.65,-37.27,-38.67,0,*58
1487376415.72,7986,12.38,73226.0,-12.65,-37.09,-38.43,0,*51
1487376416.99,7987,12.38,73220.8,-12.65,-36.97,-38.29,0,*5A
1487376418.28,7988,12.38,73220.0,-12.65,-37.09,-38.49,0,*55
1487376419.54,7989,12.38,73226.8,-12.65,-37.27,-38.49,0,*58
1487376420.81,7990,12.38,73220.8,-12.65,-37.09,-38.43,0,*56
1487376422.05,7991,12.38,73218.3,-12.65,-36.97,-38.43,0,*51
1487376423.32,7992,12.38,73220.8,-12.65,-36.97,-38.29,0,*5E
1487376424.56,7993,12.38,73220.0,-12.65,-37.15,-38.61,0,*58
1487376425.78,7994,12.38,73220.0,-12.63,-37.03,-38.35,0,*5F
1487376427.07,7995,12.38,73216.8,-12.65,-37.09,-38.49,0,*59
1487376428.32,7996,12.38,73220.3,-12.63,-36.91,-38.43,0,*56
1487376429.61,7997,12.38,73220.3,-12.65,-37.09,-38.29,0,*5D
1487376430.86,7998,12.38,73218.3,-12.63,-37.21,-38.61,0,*52
1487376432.09,7999,12.38,73218.5,-12.65,-37.33,-38.85,0,*5C
1487376433.36,8000,12.38,73218.5,-12.63,-37.39,-38.79,0,*55
1487376434.59,8001,12.38,73220.8,-12.65,-37.33,-38.61,0,*51
1487376435.83,8002,12.38,73222.3,-12.63,-37.39,-38.73,0,*5D
1487376437.05,8003,12.38,73222.8,-12.63,-37.27,-38.55,0,*57
1487376438.32,8004,12.38,73222.0,-12.65,-37.09,-38.43,0,*5D
1487376439.53,8005,12.38,73220.3,-12.63,-36.85,-38.05,0,*5D
1487376440.78,8006,12.38,73216.3,-12.63,-37.03,-38.23,0,*55
1487376442.02,8007,12.38,73222.0,-12.63,-37.21,-38.61,0,*52
1487376443.24,8008,12.38,73220.8,-12.63,-37.27,-38.55,0,*5C
1487376444.49,8009,12.38,73222.8,-12.63,-37.09,-38.55,0,*51
1487376445.73,8010,12.38,73222.8,-12.65,-37.15,-38.61,0,*55
1487376446.95,8011,12.38,73220.0,-12.63,-37.03,-38.17,0,*54
1487376448.16,8012,12.38,73216.3,-12.63,-37.03,-38.17,0,*57
1487376449.42,8013,12.38,73220.0,-12.65,-37.33,-38.67,0,*54
1487376450.64,8014,12.38,73220.8,-12.63,-37.27,-38.61,0,*56
1487376451.86,8015,12.38,73216.0,-12.63,-37.27,-38.55,0,*50
1487376453.13,8016,12.38,73216.0,-12.63,-36.91,-38.23,0,*5E
1487376454.37,8017,12.38,73218.8,-12.63,-36.91,-38.05,0,*5B
1487376455.61,8018,12.38,73220.8,-12.65,-37.27,-38.61,0,*5C
1487376456.85,8019,12.38,73224.0,-12.63,-37.39,-38.61,0,*54
1487376458.09,8020,12.38,73220.5,-12.63,-37.09,-38.35,0,*5C
1487376459.34,8021,12.38,73222.3,-12.63,-37.39,-38.61,0,*5F
1487376460.58,8022,12.38,73220.8,-12.63,-37.45,-38.79,0,*5E
1487376461.79,8023,12.38,73220.5,-12.63,-37.57,-38.73,0,*56
1487376463.05,8024,12.38,73216.5,-12.63,-37.69,-38.91,0,*50
1487376464.28,8025,12.38,73218.0,-12.65,-37.75,-38.97,0,*5C
1487376465.55,8026,12.38,73218.8,-12.65,-37.69,-38.85,0,*51
1487376466.81,8027,12.38,73218.5,-12.65,-37.15,-38.49,0,*5B
1487376468.05,8028,12.38,73222.8,-12.65,-37.45,-38.61,0,*5B
1487376469.26,8029,12.38,73218.5,-12.63,-37.57,-38.73,0,*5C
1487376470.54,8030,12.38,73222.3,-12.65,-37.51,-38.67,0,*51
1487376471.8,8031,12.38,73216.5,-12.65,-37.27,-38.49,0,*5D
1487376473.05,8032,12.38,73216.3,-12.63,-37.51,-38.61,0,*53
1487376474.29,8033,12.38,73216.3,-12.63,-37.45,-38.79,0,*5E
1487376475.55,8034,12.38,73218.0,-12.63,-37.63,-38.79,0,*5D
1487376476.76,8035,12.38,73218.0,-12.63,-37.45,-38.73,0,*52
1487376478.03,8036,12.38,73222.5,-12.65,-37.63,-38.85,0,*5A
1487376479.29,8037,12.38,73222.5,-12.65,-37.27,-38.49,0,*5B
1487376480.56,8038,12.38,73218.8,-12.65,-37.15,-38.29,0,*53
1487376481.8,8039,12.38,73222.8,-12.63,-37.09,-38.17,0,*54
1487376483.06,8040,12.38,73220.0,-12.65,-37.15,-38.29,0,*5C
1487376484.36,8041,12.38,73222.3,-12.65,-37.09,-38.29,0,*50
1487376485.59,8042,12.38,73216.5,-12.65,-37.33,-38.43,0,*56
1487376486.86,8043,12.38,73218.3,-12.65,-37.15,-38.23,0,*55
1487376488.13,8044,12.38,73212.5,-12.63,-36.91,-37.99,0,*57
1487376489.35,8045,12.38,73214.0,-12.63,-37.03,-38.05,0,*56
1487376490.64,8046,12.38,73214.8,-12.65,-37.09,-38.29,0,*57
1487376491.85,8047,12.38,73212.8,-12.63,-37.03,-38.17,0,*57
1487376493.13,8048,12.38,73218.8,-12.63,-37.09,-38.23,0,*55
1487376494.38,8049,12.38,73212.8,-12.63,-37.21,-38.43,0,*58
1487376495.62,8050,12.38,73218.0,-12.63,-37.09,-38.17,0,*5B
1487376496.86,8051,12.38,73214.0,-12.63,-37.03,-37.99,0,*59
1487376498.16,8052,12.38,73214.0,-12.65,-37.09,-38.23,0,*58